Regional Weather Roundup
Issued by NWS

Home | Current Version | Previous Version | Text Only | Print | Product List | Glossary On
Versions: 1 2 3 4 5 6 7 8 9 10 11 12 13 14 15 16 17 18 19 20 21 22 23 24 25 26 27 28
000
ASPQ40 PGUM 250112
RWRPQ
WEATHER ROUNDUP FOR THE MARIANAS AND MICRONESIA
NATIONAL WEATHER SERVICE TIYAN GU
1100 AM CHST SAT OCT 25 2014

GUZ001>004-250200-
MARIANA ISLANDS-

CITY           SKY/WX    TMP DP  RH WIND       PRES   REMARKS
GUAM AIRPORT   MOSUNNY   88  75  66 E9        29.92F HX  97
ANDERSEN AFB   PTSUNNY   86  79  79 E10       29.92F HX  99
ROTA AIRPORT   PTSUNNY   82  77  83 E13       29.93F HX  91
TINIAN AP      PTSUNNY   84  77  79 E12       29.91R HX  94
SAIPAN AP      MOSUNNY   86  77  74 E10       29.93R HX  97

$$

PMZ161-250200-
REPUBLIC OF PALAU-

CITY           SKY/WX    TMP DP  RH WIND       PRES   REMARKS
KOROR AP       PTSUNNY   88  77  70 W9        29.89F HX 100
KOROR WSO      PTSUNNY   86  75  70 SW6       29.88F HX  95

$$

PMZ171>174-250200-
FEDERATED STATES OF MICRONESIA-

CITY           SKY/WX    TMP DP  RH WIND       PRES   REMARKS
YAP AIRPORT    PTSUNNY   84  79  84 CALM      29.89F HX  96
CHUUK AP       PTSUNNY   88  82  84 VRB3      29.83  HX 108
POHNPEI AP     CLOUDY    88  77  70 E12       29.81F HX 100
POHNPEI WSO    CLOUDY    86  77  74 NE7       29.85F HX  97
KOSRAE AP      PTSUNNY   88  75  66 NE10      29.83F HX  97

$$

PMZ181-250200-
REPUBLIC OF THE MARSHALL ISLANDS-

CITY           SKY/WX    TMP DP  RH WIND       PRES   REMARKS
KWAJALEIN AP   SUNNY     88  72  58 CALM      29.85F HX  94
MAJURO AP      NOT AVBL
MAJURO WSO     CLOUDY    86  77  74 SE8       29.83F HX  97

$$




USA.gov is the U.S. government's official web portal to all federal, state and local government web resources and services.